Weather History for San Antonio Stinson, TX

Change the Weather History Date:

Sunday, December 29, 2013

  Actual Average Record
Temperature  
Mean Temperature 50 °F -  
Max Temperature 64 °F 61 °F 79 °F (1999)
Min Temperature 37 °F 38 °F 32 °F (2003)
Degree Days  
Heating Degree Days 14    
Moisture  
Dew Point 41 °F    
Average Humidity 81    
Maximum Humidity 93    
Minimum Humidity 58    
Precipitation  
Precipitation 0.00 in - - ()
Sea Level Pressure  
Sea Level Pressure 30.05 in    
Wind  
Wind Speed 1 mph (West)    
Max Wind Speed 12 mph    
Max Gust Speed -    
Visibility 5 miles    
Events      
Averages and records for this station are not official NWS values.
T = Trace of Precipitation, MM = Missing Value Source: NWS Daily Summary

Daily Weather History Graph

Daily Weather History Graph

Search for Another Location

Airport:

Trip Planner

Search our weather history database for the weather conditions in past years. The results will help you decide how hot, cold, wet, or windy it might be!

Date:

Astronomy

Dec. 29, 2013 Rise Set
Actual Time 7:27 AM CST 5:44 PM CST
Civil Twilight 7:01 AM CST 6:10 PM CST
Nautical Twilight 6:31 AM CST 6:40 PM CST
Astronomical Twilight 6:02 AM CST 7:09 PM CST
Moon 4:18 AM CST (12/29) 3:19 PM CST (12/29)
Length of Visible Light 11h 09m
Length of Day
10h 17m
Waning Crescent, 11% of the Moon is Illuminated
Dec 29
Waning Crescent
Jan 1
New
Jan 7
First Quarter
Jan 15
Full
Jan 23
Last Quarter

Hourly Weather History & Observations

Time (CST) Temp. Windchill Dew Point Humidity Pressure Visibility Wind Dir Wind Speed Gust Speed Precip Events Conditions
12:53 AM 45.0 °F - 41.0 °F 86% 30.04 in 2.5 mi Calm Calm - N/A   Clear
1:18 AM 44.6 °F - 42.8 °F 93% 30.02 in 3.0 mi Calm Calm - N/A   Clear
1:53 AM 42.1 °F - 39.0 °F 89% 30.01 in 2.5 mi Calm Calm - N/A   Clear
2:07 AM 42.8 °F - 39.2 °F 87% 29.99 in 3.0 mi Calm Calm - N/A   Clear
2:23 AM 42.8 °F - 39.2 °F 87% 29.99 in 2.5 mi Calm Calm - N/A   Clear
2:53 AM 42.1 °F - 39.0 °F 89% 29.99 in 2.5 mi Calm Calm - N/A   Clear
3:12 AM 41.0 °F - 37.4 °F 87% 29.99 in 1.5 mi Calm Calm - N/A   Clear
3:30 AM 41.0 °F - 37.4 °F 87% 30.00 in 3.0 mi Calm Calm - N/A   Clear
3:49 AM 41.0 °F - 39.2 °F 93% 30.00 in 2.0 mi Calm Calm - N/A   Clear
3:53 AM 42.1 °F - 39.0 °F 89% 30.01 in 1.8 mi Calm Calm - N/A   Partly Cloudy
4:07 AM 41.0 °F - 39.2 °F 93% 30.00 in 2.5 mi Calm Calm - N/A   Partly Cloudy
4:26 AM 39.2 °F - 37.4 °F 93% 29.99 in 3.0 mi Calm Calm - N/A   Scattered Clouds
4:37 AM 41.0 °F - 37.4 °F 87% 29.99 in 2.5 mi Calm Calm - N/A   Scattered Clouds
4:41 AM 41.0 °F - 37.4 °F 87% 29.99 in 3.0 mi Calm Calm - N/A   Mostly Cloudy
4:53 AM 39.9 °F - 37.0 °F 89% 30.00 in 3.0 mi Calm Calm - N/A   Partly Cloudy
5:00 AM 39.2 °F - 37.4 °F 93% 29.99 in 1.8 mi Calm Calm - N/A   Partly Cloudy
5:11 AM 39.2 °F - 37.4 °F 93% 29.99 in 2.0 mi Calm Calm - N/A   Scattered Clouds
5:23 AM 39.2 °F - 37.4 °F 93% 29.99 in 3.0 mi Calm Calm - N/A   Scattered Clouds
5:30 AM 39.2 °F - 37.4 °F 93% 29.99 in 2.5 mi Calm Calm - N/A   Mostly Cloudy
5:51 AM 39.2 °F - 37.4 °F 93% 30.00 in 3.0 mi Calm Calm - N/A   Mostly Cloudy
5:53 AM 41.0 °F - 37.0 °F 86% 30.01 in 3.0 mi Calm Calm - N/A   Mostly Cloudy
5:59 AM 39.2 °F - 37.4 °F 93% 30.00 in 1.8 mi Calm Calm - N/A   Mostly Cloudy
6:02 AM 39.2 °F - 37.4 °F 93% 30.01 in 2.0 mi Calm Calm - N/A   Mostly Cloudy
6:14 AM 41.0 °F - 37.4 °F 87% 30.01 in 3.0 mi Calm Calm - N/A   Overcast
6:38 AM 39.2 °F - 37.4 °F 93% 30.01 in 2.5 mi Calm Calm - N/A   Scattered Clouds
6:53 AM 39.0 °F - 37.0 °F 93% 30.03 in 2.0 mi Calm Calm - N/A   Partly Cloudy
7:13 AM 39.2 °F - 35.6 °F 87% 30.03 in 2.0 mi Calm Calm - N/A   Mostly Cloudy
7:20 AM 37.4 °F - 35.6 °F 93% 30.02 in 2.5 mi Calm Calm - N/A   Scattered Clouds
7:23 AM 37.4 °F - 35.6 °F 93% 30.03 in 1.8 mi Calm Calm - N/A   Mostly Cloudy
7:48 AM 39.2 °F - 35.6 °F 87% 30.04 in 1.0 mi Calm Calm - N/A   Mist
7:53 AM 39.9 °F - 37.0 °F 89% 30.04 in 1.5 mi Calm Calm - N/A   Scattered Clouds
8:11 AM 39.2 °F - 37.4 °F 93% 30.04 in 2.0 mi Calm Calm - N/A   Partly Cloudy
8:32 AM 42.8 °F - 41.0 °F 93% 30.04 in 1.8 mi Calm Calm - N/A   Scattered Clouds
8:41 AM 44.6 °F - 42.8 °F 93% 30.04 in 2.0 mi Calm Calm - N/A   Partly Cloudy
8:51 AM 46.4 °F - 44.6 °F 93% 30.05 in 1.5 mi Calm Calm - N/A   Clear
8:53 AM 46.9 °F - 44.1 °F 90% 30.06 in 1.5 mi Calm Calm - N/A   Clear
9:21 AM 50.0 °F - 46.4 °F 87% 30.06 in 1.8 mi Calm Calm - N/A   Mostly Cloudy
9:34 AM 51.8 °F - 46.4 °F 82% 30.07 in 2.0 mi Calm Calm - N/A   Mostly Cloudy
9:49 AM 53.6 °F - 48.2 °F 82% 30.07 in 2.5 mi Calm Calm - N/A   Haze
9:53 AM 54.0 °F - 48.0 °F 80% 30.08 in 3.0 mi Calm Calm - N/A   Haze
10:53 AM 57.9 °F - 44.1 °F 60% 30.08 in 10.0 mi South 5.8 mph - N/A   Mostly Cloudy
11:00 AM 57.2 °F - 44.6 °F 63% 30.08 in 10.0 mi South 5.8 mph - N/A   Unknown
11:53 AM 60.1 °F - 48.0 °F 64% 30.07 in 10.0 mi South 5.8 mph - N/A   Overcast
12:53 PM 61.0 °F - 48.0 °F 62% 30.04 in 10.0 mi SW 6.9 mph - N/A   Overcast
1:43 PM 62.6 °F - 48.2 °F 59% 30.01 in 10.0 mi WSW 6.9 mph - N/A   Scattered Clouds
1:53 PM 62.1 °F - 48.0 °F 60% 30.01 in 10.0 mi West 6.9 mph - N/A   Partly Cloudy
2:53 PM 64.0 °F - 48.9 °F 58% 30.02 in 10.0 mi West 6.9 mph - N/A   Clear
3:53 PM 64.0 °F - 48.9 °F 58% 30.03 in 10.0 mi West 9.2 mph - N/A   Mostly Cloudy
4:53 PM 63.0 °F - 50.0 °F 63% 30.04 in 10.0 mi North - - N/A   Mostly Cloudy
5:01 PM 62.6 °F - 50.0 °F 63% 30.04 in 10.0 mi WSW 5.8 mph - N/A   Scattered Clouds
5:53 PM 61.0 °F - 51.1 °F 70% 30.08 in 10.0 mi West 5.8 mph - N/A   Overcast
6:53 PM 60.1 °F - 48.0 °F 64% 30.09 in 10.0 mi West 5.8 mph - N/A   Overcast
7:08 PM 60.8 °F - 48.2 °F 63% 30.10 in 10.0 mi West 5.8 mph - N/A   Overcast
7:21 PM 60.8 °F - 48.2 °F 63% 30.11 in 10.0 mi West 5.8 mph - N/A   Overcast
7:53 PM 57.0 °F - 46.0 °F 67% 30.14 in 10.0 mi NNE 11.5 mph - N/A   Overcast
8:03 PM 53.6 °F - 44.6 °F 72% 30.15 in 10.0 mi NNE 11.5 mph - N/A   Overcast
8:32 PM 51.8 °F - 42.8 °F 71% 30.15 in 10.0 mi NNE 11.5 mph - N/A   Mostly Cloudy
8:53 PM 48.9 °F - 39.9 °F 71% 30.19 in 10.0 mi NNE 11.5 mph - N/A   Partly Cloudy
9:24 PM 46.4 °F 41.1 °F 37.4 °F 71% 30.20 in 10.0 mi NNE 11.5 mph - N/A   Mostly Cloudy
9:53 PM 46.0 °F 40.6 °F 36.0 °F 68% 30.22 in 10.0 mi NNE 11.5 mph - N/A   Overcast
10:53 PM 42.1 °F - 33.1 °F 70% 30.25 in 10.0 mi North - - N/A   Overcast
11:53 PM 41.0 °F - 32.0 °F 70% 30.24 in 10.0 mi North - - N/A   Overcast